Flag for Germany Weather past 2 weeks in Esslingen, Baden-Württemberg, Germany

Now
45 °F

Partly sunny.


Feels Like: 41 °F
Forecast: 35 / 48 °F
Wind: 6 mph from Southwest

Location: Stuttgart-Echterdingen

Current Time: Dec 22, 2014 at 12:01:25 PM

Latest Report: Dec 22, 2014 at 11:20 AM


Visibility: N/A

Pressure: 30.33 "Hg

Humidity: 71%

Dew point: 36 °F

Location of EsslingenLocation

Historic Weather in Esslingen — Graph

°F

Esslingen temperature yesterday

Maximum temperature yesterday: 45 °F (at 12:20 PM)
Minimum temperature yesterday: 37 °F (at 3:50 AM)
Average temperature yesterday: 41 °F

Past Weeks' High & Low Weather Summary

 TemperatureHumidityPressure
High54 °F (Dec 13, 3:20 PM)100% (Dec 9, 1:20 AM)30.51 "Hg (Dec 9, 1:20 AM)
Low28 °F (Dec 10, 3:20 AM)58% (Dec 12, 12:50 PM)29.74 "Hg (Dec 12, 4:50 PM)
Average42 °F83%30.08 "Hg
* Reported Dec 7 10:20 AM — Dec 22 10:50 AM, Esslingen, Weather by CustomWeather, © 2014

Note: Actual official high and low records may vary slightly from our data, if they occured in-between our weather recording intervals... More about our weather records

Advertising

Esslingen weather history for previous 24 hours

 ConditionsComfort  
Time TempWeatherWind HumidityBarometerVisibility
10:50 AM
Dec 22
43 °FPartly sunny.12 mph76%30.33 "HgN/A
10:20 AM43 °FPartly sunny.10 mph76%30.33 "HgN/A
9:50 AM41 °FPartly sunny.9 mph76%30.33 "HgN/A
9:20 AM41 °FPartly sunny.7 mph76%30.36 "HgN/A
8:50 AM41 °FPartly sunny.9 mph76%30.36 "HgN/A
8:20 AM41 °FPartly sunny.9 mph76%30.36 "HgN/A
7:50 AM41 °FPassing clouds.9 mph76%30.33 "HgN/A
7:20 AM41 °FPassing clouds.9 mph76%30.33 "HgN/A
6:50 AM41 °FPassing clouds.9 mph76%30.33 "HgN/A
6:20 AM41 °FPassing clouds.10 mph76%30.33 "HgN/A
5:50 AM41 °FPassing clouds.9 mph76%30.33 "HgN/A
5:20 AM41 °FOvercast.8 mph76%30.36 "HgN/A
4:20 AM41 °FOvercast.8 mph76%30.36 "HgN/A
3:50 AM41 °FOvercast.10 mph76%30.39 "HgN/A
3:20 AM43 °FOvercast.10 mph71%30.39 "HgN/A
2:50 AM43 °FOvercast.9 mph71%30.39 "HgN/A
2:20 AM43 °FPassing clouds.10 mph71%30.39 "HgN/A
1:50 AM43 °FPassing clouds.10 mph71%30.39 "HgN/A
1:20 AM41 °FPassing clouds.8 mph76%30.39 "HgN/A
12:50 AM43 °FPassing clouds.8 mph71%30.39 "HgN/A
12:20 AM41 °FPassing clouds.8 mph76%30.39 "HgN/A
11:50 PM
Dec 21
41 °FPassing clouds.7 mph76%30.39 "HgN/A
11:20 PM41 °FPassing clouds.9 mph76%30.39 "HgN/A
10:20 PM41 °FPassing clouds.7 mph76%30.42 "HgN/A
9:50 PM41 °FPassing clouds.6 mph76%30.42 "HgN/A
9:20 PM43 °FPassing clouds.8 mph71%30.42 "HgN/A
8:50 PM43 °FPassing clouds.8 mph71%30.45 "HgN/A
8:20 PM43 °FPassing clouds.8 mph71%30.45 "HgN/A
7:50 PM41 °FPassing clouds.6 mph76%30.45 "HgN/A
7:20 PM41 °FPassing clouds.7 mph76%30.45 "HgN/A
6:50 PM41 °FPassing clouds.6 mph76%30.45 "HgN/A
6:20 PM41 °FPassing clouds.6 mph76%30.45 "HgN/A
5:50 PM41 °FPassing clouds.7 mph76%30.45 "HgN/A
5:20 PM41 °FPassing clouds.8 mph76%30.45 "HgN/A
4:50 PM43 °FPassing clouds.6 mph71%30.45 "HgN/A
4:20 PM43 °FPartly sunny.8 mph71%30.45 "HgN/A
3:50 PM43 °FPartly sunny.7 mph71%30.45 "HgN/A
3:20 PM43 °FPartly sunny.6 mph71%30.45 "HgN/A
2:50 PM43 °FPartly sunny.7 mph76%30.45 "HgN/A
2:20 PM43 °FBroken clouds.6 mph76%30.45 "HgN/A
1:50 PM43 °FPartly sunny.8 mph76%30.48 "HgN/A
1:20 PM43 °FPartly sunny.8 mph76%30.48 "HgN/A
12:50 PM43 °FBroken clouds.9 mph76%30.48 "HgN/A
12:20 PM45 °FBroken clouds.9 mph76%30.48 "HgN/A
Weather by CustomWeather, © 2014

See weather overviewHow to use our weather pages